Regional Weather Roundup
Issued by NWS

Current Version | Previous Version | Text Only | Print | Product List | Glossary On
Versions: 1 2 3 4 5 6 7 8 9 10 11 12 13 14 15 16 17 18 19 20 21 22 23 24 25 26 27 28 29 30 31 32 33 34 35 36 37 38 39 40 41 42 43 44 45 46 47 48 49 50
000
ASCA42 TJSJ 011311
RWRPR
PUERTO RICO/U.S. VIRGIN ISLANDS HOURLY WEATHER ROUNDUP
NATIONAL WEATHER SERVICE SAN JUAN PR
900 AM AST SAT NOV 01 2014

PRZ001-004-011400-
PUERTO RICO

CITY           SKY/WX    TMP DP  RH WIND       PRES   REMARKS
SAN JUAN LMM   MOSUNNY   84  77  79 CALM      30.01R HX  94
PONCE          MOSUNNY   88  75  66 E9        29.94S HX  97
AGUADILLA      SUNNY     84  73  70 CALM      30.00R HX  91
CEIBA          MOSUNNY   84  75  74 SE9       30.03R HX  92
$$

PRZ006-007-011400-
U.S. VIRGIN ISLANDS

CITY           SKY/WX    TMP DP  RH WIND       PRES   REMARKS
$$

HOURLY WEATHER ROUNDUP FOR THE NEWS MEDIA

CITY           SKY/WX    TMP DP  RH WIND       PRES   REMARKS
MIAMI          MOSUNNY   67  55  65 SW3       29.98R
ORLANDO        MOSUNNY   57  46  66 NW14G22   29.99R
NEW YORK       RAIN      46  37  71 N14       29.86R
NEWARK         LGT RAIN  45  40  82 N14       29.86R
CHICAGO        CLOUDY    36  24  62 N12       30.41R WCI  28
HARTFORD       CLOUDY    47  42  83 N10G21    29.79F
BOSTON         CLOUDY    44  36  73 N16       29.87F
DALLAS         PTCLDY    42  31  64 E6        30.44R
PHILADELPHIA   RAIN      46  41  82 N20G30    29.81R



USA.gov is the U.S. government's official web portal to all federal, state and local government web resources and services.